DW4070 Stamford CT US current weather conditions

sailwx.info

Wind from 182

Air temperature 21.7° C
Dewpoint 21.7° C

Last reported at 2019-Aug-23 05:00 UTC.
Time now 2019-Aug-23 05:27 UTC

Location: N 41°08' W 073°33'.
View on Google Maps.

See reports from other nearby stations

  
Tides and Currents Weather Stations Pressure Air Temp Water Temp Dewpoint Dewpoint Depression Visibility Wind Speed Wind Dir Waves Ship Positions
date/time (UTC)wind fromknots sea level pressurealtimeterstation pressurevisibilityair tempwater tempwave heightnotes
2019-Aug-23 05:00 182 21.7
2019-Aug-23 04:45 182 21.7
2019-Aug-23 04:16 182 21.7
2019-Aug-23 04:02 182 21.7
2019-Aug-23 03:47 182 21.7
2019-Aug-23 03:32 182 21.7
2019-Aug-23 03:16 182 21.7
2019-Aug-23 03:01 182 21.7
2019-Aug-23 02:47 186 21.7
2019-Aug-23 02:31 186 21.7
2019-Aug-23 02:16 187 21.7
2019-Aug-23 02:02 186 21.7
2019-Aug-23 01:47 186 22.2
2019-Aug-23 01:31 186 22.8
2019-Aug-23 01:17 186 22.8
2019-Aug-23 01:01 186 23.3
2019-Aug-23 00:46 186 23.3
2019-Aug-23 00:31 186 23.3
2019-Aug-23 00:16 186 23.3
2019-Aug-23 00:01 187 23.3
2019-Aug-22 23:46 186 23.3
2019-Aug-22 23:32 186 23.3
2019-Aug-22 23:16 186 23.9
2019-Aug-22 23:02 186 23.9
2019-Aug-22 22:46 186 23.9
2019-Aug-22 22:32 186 23.9
2019-Aug-22 22:16 186 23.9
2019-Aug-22 22:01 186 23.9
2019-Aug-22 22:00 186 23.9
2019-Aug-22 21:46 186 23.9
2019-Aug-22 21:30 186 24.4
2019-Aug-22 21:16 018 26.1
2019-Aug-22 21:01 096 27.2
2019-Aug-22 20:47 096 28.3
2019-Aug-22 20:31 096 29.4
2019-Aug-22 20:16 096 30.6
2019-Aug-22 20:01 096 30.6
2019-Aug-22 19:46 197 30.6
2019-Aug-22 19:31 188 31.1
2019-Aug-22 19:16 090 32.2
2019-Aug-22 19:01 077 31.7
2019-Aug-22 18:46 051 31.7
2019-Aug-22 18:30 124 31.1
2019-Aug-22 18:15 350 31.7
2019-Aug-22 18:00 217 31.7
2019-Aug-22 17:45 056 31.7
2019-Aug-22 17:30 134 31.7
2019-Aug-22 17:16 146 31.1
2019-Aug-22 17:01 155 31.7
2019-Aug-22 16:46 188 31.1
2019-Aug-22 16:31 135 31.1
2019-Aug-22 16:15 133 0 gusting 2 30.6
2019-Aug-22 16:00 020 30.0
2019-Aug-22 15:45 001 29.4
2019-Aug-22 15:30 235 28.9
2019-Aug-22 15:15 168 28.3
2019-Aug-22 15:00 037 26.7
2019-Aug-22 14:46 115 25.6
2019-Aug-22 14:32 059 25.0
2019-Aug-22 14:16 108 24.4
2019-Aug-22 14:03 123 23.9
2019-Aug-22 13:47 138 23.3
2019-Aug-22 13:31 112 22.8
2019-Aug-22 13:16 205 22.8
2019-Aug-22 13:01 133 22.2
2019-Aug-22 12:46 133 21.7
2019-Aug-22 12:31 133 21.1
2019-Aug-22 12:16 133 21.1
2019-Aug-22 12:00 133 20.6
2019-Aug-22 11:46 133 20.6
2019-Aug-22 11:31 133 20.0
2019-Aug-22 11:15 133 20.0
2019-Aug-22 11:01 133 20.0
2019-Aug-22 10:46 133 19.4
2019-Aug-22 10:31 133 19.4
2019-Aug-22 10:15 133 19.4
2019-Aug-22 10:01 133 19.4
2019-Aug-22 09:46 133 20.0
2019-Aug-22 09:31 133 20.0
2019-Aug-22 09:15 133 20.0
2019-Aug-22 09:00 133 20.0
2019-Aug-22 08:46 133 20.0
2019-Aug-22 08:31 133 20.6
2019-Aug-22 08:16 133 20.6
2019-Aug-22 08:00 133 20.6
2019-Aug-22 07:45 133 20.6
2019-Aug-22 07:31 133 20.6
2019-Aug-22 07:16 133 20.6
2019-Aug-22 07:00 133 20.6
2019-Aug-22 06:45 133 20.6
2019-Aug-22 06:30 133 20.6
2019-Aug-22 06:15 133 21.1
2019-Aug-22 06:00 133 21.1
2019-Aug-22 05:45 133 21.1
2019-Aug-22 05:30 133 21.1
2019-Aug-22 05:15 133 21.1
2019-Aug-22 05:00 133 21.1
2019-Aug-22 04:45 133 21.1
2019-Aug-22 04:30 133 21.1
2019-Aug-22 04:15 133 21.1
2019-Aug-22 04:00 133 21.1
2019-Aug-22 03:45 133 21.1
2019-Aug-22 03:30 133 21.7
2019-Aug-22 03:15 133 21.7
2019-Aug-22 03:00 133 21.7
2019-Aug-22 02:45 133 21.7
2019-Aug-22 02:30 133 21.7
2019-Aug-22 02:15 133 22.2
2019-Aug-22 01:46 133 22.2
2019-Aug-22 01:32 133 22.2
2019-Aug-22 01:17 133 22.2
2019-Aug-22 01:01 133 22.8
2019-Aug-22 00:46 133 22.8
2019-Aug-22 00:31 133 22.8
2019-Aug-22 00:17 133 23.3
2019-Aug-22 00:02 133 23.3
2019-Aug-21 23:49 133 23.3
2019-Aug-21 23:32 132 23.9
2019-Aug-21 23:16 132 24.4
2019-Aug-21 23:01 132 24.4
2019-Aug-21 22:47 215 25.0
2019-Aug-21 22:31 215 25.6
2019-Aug-21 22:17 158 25.6
2019-Aug-21 22:02 153 26.1
2019-Aug-21 21:46 153 25.6
2019-Aug-21 21:32 153 25.6
2019-Aug-21 21:17 153 25.6
2019-Aug-21 21:01 167 25.6
2019-Aug-21 20:46 167 26.1
2019-Aug-21 20:31 167 26.1
2019-Aug-21 20:16 170 26.7
2019-Aug-21 20:01 169 27.8
2019-Aug-21 19:46 174 28.3
2019-Aug-21 19:31 166 29.4
2019-Aug-21 19:15 154 2 gusting 5 30.0
2019-Aug-21 19:01 188 0 gusting 6 30.6
2019-Aug-21 18:46 271 0 gusting 4 30.6
2019-Aug-21 18:31 233 0 gusting 6 30.0
2019-Aug-21 18:15 109 0 gusting 6 29.4
2019-Aug-21 18:00 185 28.9
2019-Aug-21 17:45 155 28.3
2019-Aug-21 17:30 089 27.2
2019-Aug-21 17:15 195 27.2
2019-Aug-21 17:00 060 27.8
2019-Aug-21 16:46 347 28.3
2019-Aug-21 16:31 067 1 gusting 6 28.9
2019-Aug-21 16:15 175 0 gusting 7 28.9
2019-Aug-21 16:01 180 28.3
2019-Aug-21 15:46 162 28.9
2019-Aug-21 15:30 234 28.3
2019-Aug-21 15:15 203 0 gusting 9 27.8
2019-Aug-21 15:00 157 27.2
2019-Aug-21 14:45 131 0 gusting 4 26.1
2019-Aug-21 14:30 209 25.6
2019-Aug-21 14:18 122 25.0
2019-Aug-21 14:01 183 24.4
2019-Aug-21 13:47 182 24.4
2019-Aug-21 13:32 169 23.9
2019-Aug-21 13:16 250 23.3
2019-Aug-21 13:02 207 0 gusting 3 22.8
2019-Aug-21 12:46 170 22.2
2019-Aug-21 12:32 127 21.7
2019-Aug-21 12:16 127 21.1
2019-Aug-21 12:01 127 21.1
2019-Aug-21 11:47 127 21.1
2019-Aug-21 11:32 127 20.6
2019-Aug-21 11:16 127 20.6
2019-Aug-21 11:01 127 20.0
2019-Aug-21 10:46 127 20.0
2019-Aug-21 10:31 127 20.0
2019-Aug-21 10:15 127 20.0
2019-Aug-21 10:01 127 20.0
2019-Aug-21 09:46 127 20.0
2019-Aug-21 09:30 127 20.0
2019-Aug-21 09:16 127 20.0
2019-Aug-21 09:00 127 20.0
2019-Aug-21 08:46 127 20.0
2019-Aug-21 08:31 127 20.0
2019-Aug-21 08:15 127 20.0
2019-Aug-21 08:00 127 19.4
2019-Aug-21 07:45 127 19.4
2019-Aug-21 07:30 127 19.4
2019-Aug-21 07:15 127 19.4
2019-Aug-21 07:00 127 18.9
2019-Aug-21 06:45 127 18.9
2019-Aug-21 06:30 127 18.9
2019-Aug-21 06:15 127 18.9
2019-Aug-21 06:00 127 19.4
2019-Aug-21 05:46 127 19.4
2019-Aug-21 05:30 127 19.4
2019-Aug-21 05:15 127 19.4
2019-Aug-21 05:00 127 19.4